Regional Weather Roundup
Issued by NWS

Home | Current Version | Previous Version | Graphics & Text | Print | Product List | Glossary On
Versions: 1 2 3 4 5 6 7 8 9 10 11 12 13 14 15 16 17 18 19 20 21 22 23 24 25 26 27 28 29 30 31 32 33 34 35 36 37 38 39 40 41 42 43 44 45 46 47 48 49 50
000
ASUS43 KLMK 282102
RWRKY
KENTUCKY REGIONAL WEATHER ROUNDUP
NATIONAL WEATHER SERVICE LOUISVILLE KY
500 PM EDT THU MAY 28 2015

NOTE "FAIR" INDICATES FEW OR NO CLOUDS BELOW 12,000 FEET
WITH NO SIGNIFICANT WEATHER AND/OR OBSTRUCTIONS TO VISIBILITY.

KYZ001>023-026-027-061>063-070>075-282200-
WESTERN AND SOUTH CENTRAL KENTUCKY

CITY           SKY/WX    TMP DP  RH WIND       PRES   REMARKS
PADUCAH        MOSUNNY   84  64  50 S7        30.10F
HENDERSON      MOSUNNY   82  64  54 S7        30.10F
OWENSBORO      MOSUNNY   84  66  54 S9        30.13F
HOPKINSVILLE   CLOUDY    81  65  57 S5        30.11F
BOWLING GREEN  MOSUNNY   82  63  52 CALM      30.14F
GLASGOW        NOT AVBL
$$

KYZ024-025-028>034-038-045-046-053-282200-
NORTH CENTRAL KENTUCKY

CITY           SKY/WX    TMP DP  RH WIND       PRES   REMARKS
LOUISVILLE/SDF PTSUNNY   83  65  54 VRB5      30.14F
LOUISVILLE/LOU MOSUNNY   82  65  56 VRB3      30.15F
FORT KNOX      LGT RAIN  78  70  76 E10       30.15S
$$

KYZ035>037-039>044-047>052-055>060-089>105-282200-
NORTHEAST KENTUCKY

CITY           SKY/WX    TMP DP  RH WIND       PRES   REMARKS
LEXINGTON      PTSUNNY   77  65  66 S8        30.19F
COVINGTON      MOSUNNY   80  63  55 SE7       30.17F
FRANKFORT      LGT RAIN  74  68  81 SW7       30.17F
$$

KYZ054-064>069-076>088-106>120-282200-
SOUTHEAST KENTUCKY

CITY           SKY/WX    TMP DP  RH WIND       PRES   REMARKS
JACKSON        CLOUDY    78  65  63 NW3       30.21F
LONDON         CLOUDY    75  62  64 CALM      30.20F
SOMERSET       NOT AVBL
MIDDLESBORO    NOT AVBL
MONTICELLO     MOCLDY    75  70  85 N10       30.21F
$$



USA.gov is the U.S. government's official web portal to all federal, state and local government web resources and services.